Weather History for Taunton, MA

Change the Weather History Date:

Tuesday, July 30, 2013

  Actual Average Record
Temperature  
Mean Temperature 70 °F -  
Max Temperature 82 °F 81 °F 98 °F (1949)
Min Temperature 57 °F 60 °F 46 °F (1968)
Cooling Degree Days 4    
Growing Degree Days 20 (Base 50)    
Moisture  
Dew Point 60 °F    
Average Humidity 75    
Maximum Humidity 100    
Minimum Humidity 41    
Precipitation  
Precipitation 0.00 in - - ()
Sea Level Pressure  
Sea Level Pressure 30.06 in    
Wind  
Wind Speed 3 mph (WNW)    
Max Wind Speed 9 mph    
Max Gust Speed -    
Visibility 8 miles    
Events Fog    
Averages and records for this station are not official NWS values.
T = Trace of Precipitation, MM = Missing Value Source: NWS Daily Summary

Daily Weather History Graph

Daily Weather History Graph

Search for Another Location

Airport:

Trip Planner

Search our weather history database for the weather conditions in past years. The results will help you decide how hot, cold, wet, or windy it might be!

Date:

Astronomy

Jul. 30, 2013 Rise Set
Actual Time 5:36 AM EDT 8:04 PM EDT
Civil Twilight 5:04 AM EDT 8:35 PM EDT
Nautical Twilight 4:25 AM EDT 9:15 PM EDT
Astronomical Twilight 3:40 AM EDT 9:58 PM EDT
Moon No Moon Rise 2:21 PM EDT (7/30)
Length of Visible Light 15h 31m
Length of Day
14h 28m
Last Quarter, 41% of the Moon is Illuminated
Jul 30
Last Quarter
Aug 6
New
Aug 14
First Quarter
Aug 20
Full
Aug 28
Last Quarter

Hourly Weather History & Observations

Time (EDT) Temp. Heat Index Dew Point Humidity Pressure Visibility Wind Dir Wind Speed Gust Speed Precip Events Conditions
12:52 AM 70.0 °F - 68.0 °F 93% 30.03 in 10.0 mi WSW 3.5 mph - N/A   Clear
1:52 AM 66.9 °F - 64.9 °F 93% 30.03 in 10.0 mi Calm Calm - N/A   Clear
2:52 AM 66.0 °F - 63.0 °F 90% 30.04 in 10.0 mi Calm Calm - N/A   Clear
3:28 AM 63.0 °F - 61.0 °F 93% 30.05 in 1.8 mi Calm Calm - N/A   Clear
3:35 AM 61.0 °F - 60.1 °F 97% 30.04 in 0.8 mi Calm Calm - N/A   Clear
3:52 AM 61.0 °F - 59.0 °F 93% 30.04 in 0.5 mi Calm Calm - N/A Fog Fog
4:13 AM 60.1 °F - 59.0 °F 96% 30.04 in 0.2 mi Calm Calm - N/A Fog Fog
4:52 AM 57.9 °F - 57.9 °F 100% 30.04 in 0.2 mi WNW 4.6 mph - N/A Fog Fog
4:59 AM 61.0 °F - 60.1 °F 97% 30.04 in 1.5 mi West 3.5 mph - N/A   Partly Cloudy
5:06 AM 61.0 °F - 60.1 °F 97% 30.04 in 10.0 mi WNW 3.5 mph - N/A   Clear
5:52 AM 59.0 °F - 57.0 °F 93% 30.06 in 7.0 mi West 3.5 mph - N/A   Clear
6:52 AM 63.0 °F - 60.1 °F 90% 30.07 in 10.0 mi Calm Calm - N/A   Clear
7:52 AM 69.1 °F - 59.0 °F 70% 30.07 in 10.0 mi Variable 3.5 mph - N/A   Clear
8:52 AM 73.0 °F - 57.0 °F 57% 30.08 in 10.0 mi NW 5.8 mph - N/A   Clear
9:52 AM 75.9 °F - 57.0 °F 52% 30.08 in 10.0 mi NW 8.1 mph - N/A   Clear
10:52 AM 77.0 °F - 57.0 °F 50% 30.09 in 10.0 mi Variable 5.8 mph - N/A   Clear
11:52 AM 80.1 °F 80.4 °F 57.0 °F 45% 30.08 in 10.0 mi NW 5.8 mph - N/A   Clear
12:52 PM 81.0 °F 81.0 °F 57.0 °F 44% 30.06 in 10.0 mi West 8.1 mph - N/A   Clear
1:52 PM 82.0 °F 82.0 °F 57.9 °F 44% 30.05 in 10.0 mi West 9.2 mph - N/A   Clear
2:52 PM 82.0 °F 81.7 °F 57.0 °F 42% 30.04 in 10.0 mi NNW 6.9 mph - N/A   Scattered Clouds
3:52 PM 82.0 °F 81.6 °F 55.9 °F 41% 30.03 in 10.0 mi Variable 6.9 mph - N/A   Partly Cloudy
4:52 PM 82.0 °F 81.6 °F 55.9 °F 41% 30.03 in 10.0 mi WNW 5.8 mph - N/A   Scattered Clouds
5:52 PM 78.1 °F - 59.0 °F 52% 30.03 in 10.0 mi West 3.5 mph - N/A   Clear
6:52 PM 77.0 °F - 64.0 °F 64% 30.05 in 10.0 mi Calm Calm - N/A   Overcast
7:52 PM 73.9 °F - 64.0 °F 71% 30.07 in 10.0 mi West 3.5 mph - N/A   Overcast
8:52 PM 66.9 °F - 62.1 °F 84% 30.08 in 10.0 mi Calm Calm - N/A   Scattered Clouds
9:52 PM 63.0 °F - 61.0 °F 93% 30.09 in 10.0 mi Calm Calm - N/A   Clear
10:52 PM 62.1 °F - 60.1 °F 93% 30.09 in 10.0 mi Calm Calm - N/A   Clear
11:52 PM 61.0 °F - 59.0 °F 93% 30.08 in 9.0 mi WNW 3.5 mph - N/A   Clear